QAK3125 MMMZ-MMSM

Flight info

Callsign QAK3125
Flight time 1h 16m
Altitude 37000
Route MZT5B MZT UJ33 QET UT162 TOREO TOREO1A
Aircraft E195/M-SDE3GILORVW/S

Departure

Time 2026-04-25 19:45
Airport General Rafael Buelna International Airport (MMMZ)

Arrival

Time 2026-04-25 21:02
Airport Felipe Ángeles International Airport (MMSM)
Time Latitude Longitude Altitude Speed Heading
2026-04-25 19:29 23.16564 -106.26915 34 ft 0 kts
2026-04-25 19:36 23.16558 -106.26915 34 ft 4 kts
2026-04-25 19:36 23.16532 -106.26918 34 ft 4 kts
2026-04-25 19:36 23.16506 -106.26923 34 ft 4 kts 17°
2026-04-25 19:37 23.16483 -106.26934 34 ft 4 kts 47°
2026-04-25 19:37 23.16475 -106.26948 34 ft 0 kts 93°
2026-04-25 19:39 23.16474 -106.26928 34 ft 6 kts 93°
2026-04-25 19:39 23.16468 -106.26871 34 ft 8 kts 113°
2026-04-25 19:40 23.16428 -106.26853 34 ft 7 kts 177°
2026-04-25 19:40 23.16379 -106.26856 35 ft 9 kts 184°
2026-04-25 19:40 23.16316 -106.26850 35 ft 11 kts 163°
2026-04-25 19:40 23.16256 -106.26797 33 ft 13 kts 121°
2026-04-25 19:41 23.16205 -106.26710 34 ft 15 kts 123°
2026-04-25 19:41 23.16166 -106.26616 34 ft 14 kts 110°
2026-04-25 19:41 23.16150 -106.26513 33 ft 15 kts 94°
2026-04-25 19:41 23.16149 -106.26476 35 ft 16 kts 92°
2026-04-25 19:42 23.16138 -106.26268 34 ft 18 kts 94°
2026-04-25 19:42 23.16130 -106.26138 35 ft 18 kts 91°
2026-04-25 19:42 23.16126 -106.26004 35 ft 19 kts 92°
2026-04-25 19:42 23.16121 -106.25868 34 ft 20 kts 93°
2026-04-25 19:43 23.16112 -106.25723 34 ft 21 kts 93°
2026-04-25 19:43 23.16104 -106.25571 35 ft 21 kts 92°
2026-04-25 19:43 23.16097 -106.25416 34 ft 22 kts 93°
2026-04-25 19:43 23.16106 -106.25260 34 ft 22 kts 69°
2026-04-25 19:44 23.16103 -106.25154 35 ft 10 kts 174°
2026-04-25 19:44 23.16087 -106.25199 34 ft 14 kts 272°
2026-04-25 19:44 23.16106 -106.25567 35 ft 90 kts 273°
2026-04-25 19:44 23.16146 -106.26489 38 ft 160 kts 272°
2026-04-25 19:45 23.16205 -106.27794 399 ft 201 kts 272°
2026-04-25 19:45 23.16277 -106.29420 946 ft 242 kts 271°
2026-04-25 19:45 23.16333 -106.31322 1853 ft 272 kts 270°
2026-04-25 19:45 23.16376 -106.33255 2895 ft 269 kts 269°
2026-04-25 19:46 23.16410 -106.35256 4134 ft 280 kts 270°
2026-04-25 19:46 23.16485 -106.37319 5547 ft 283 kts 271°
2026-04-25 19:46 23.16565 -106.39375 6882 ft 282 kts 272°
2026-04-25 19:46 23.16638 -106.41439 8092 ft 283 kts 270°
2026-04-25 19:47 23.16323 -106.43480 9138 ft 289 kts 246°
2026-04-25 19:47 23.15183 -106.45114 10155 ft 295 kts 221°
2026-04-25 19:47 23.13408 -106.46198 10872 ft 317 kts 197°
2026-04-25 19:47 23.11244 -106.46306 11705 ft 330 kts 170°
2026-04-25 19:48 23.09243 -106.45432 12645 ft 338 kts 147°
2026-04-25 19:48 23.07696 -106.43708 13511 ft 345 kts 122°
2026-04-25 19:48 23.06947 -106.41341 14343 ft 351 kts 95°
2026-04-25 19:48 23.07165 -106.38986 15157 ft 354 kts 72°
2026-04-25 19:49 23.08107 -106.36701 15986 ft 357 kts 56°
2026-04-25 19:49 23.08579 -106.35945 16281 ft 358 kts 52°
2026-04-25 19:49 23.11196 -106.32828 17574 ft 364 kts 44°
2026-04-25 19:49 23.12872 -106.30893 18327 ft 369 kts 46°
2026-04-25 19:50 23.15444 -106.26299 19597 ft 385 kts 78°
2026-04-25 19:50 23.15446 -106.23450 20252 ft 390 kts 102°
2026-04-25 19:50 23.14664 -106.20707 20885 ft 394 kts 111°
2026-04-25 19:51 23.13726 -106.18043 21452 ft 398 kts 112°
2026-04-25 19:51 23.12742 -106.15310 22014 ft 403 kts 112°
2026-04-25 19:51 23.11756 -106.12546 22599 ft 407 kts 112°
2026-04-25 19:51 23.10803 -106.09822 23140 ft 411 kts 112°
2026-04-25 19:52 23.09848 -106.07093 23643 ft 414 kts 112°
2026-04-25 19:52 23.08808 -106.04136 24168 ft 418 kts 112°
2026-04-25 19:52 23.07794 -106.01289 24661 ft 421 kts 112°
2026-04-25 19:52 23.06754 -105.98400 25041 ft 427 kts 113°
2026-04-25 19:53 23.05700 -105.95510 25448 ft 431 kts 113°
2026-04-25 19:53 23.04637 -105.92609 25872 ft 435 kts 113°
2026-04-25 19:53 23.03556 -105.89654 26312 ft 438 kts 113°
2026-04-25 19:53 23.02525 -105.86848 26703 ft 441 kts 113°
2026-04-25 19:54 23.01372 -105.83737 27130 ft 445 kts 113°
2026-04-25 19:54 23.00259 -105.80751 27510 ft 448 kts 113°
2026-04-25 19:54 22.99157 -105.77800 27852 ft 451 kts 114°
2026-04-25 19:54 22.98755 -105.76731 27985 ft 453 kts 114°
2026-04-25 19:55 22.96840 -105.71674 28554 ft 457 kts 114°
2026-04-25 19:55 22.95678 -105.68626 28875 ft 460 kts 114°
2026-04-25 19:55 22.94503 -105.65552 29289 ft 460 kts 114°
2026-04-25 19:55 22.93313 -105.62450 29756 ft 458 kts 114°
2026-04-25 19:56 22.92122 -105.59363 30127 ft 458 kts 114°
2026-04-25 19:56 22.90957 -105.56255 30456 ft 460 kts 112°
2026-04-25 19:56 22.89849 -105.53116 30819 ft 460 kts 112°
2026-04-25 19:56 22.88786 -105.50082 31190 ft 460 kts 112°
2026-04-25 19:57 22.87671 -105.46927 31539 ft 461 kts 112°
2026-04-25 19:57 22.86535 -105.43735 31889 ft 461 kts 112°
2026-04-25 19:57 22.85444 -105.40682 32300 ft 460 kts 112°
2026-04-25 19:57 22.84321 -105.37536 32648 ft 461 kts 112°
2026-04-25 19:58 22.83211 -105.34431 32978 ft 461 kts 112°
2026-04-25 19:58 22.82145 -105.31463 33264 ft 462 kts 112°
2026-04-25 19:58 22.81054 -105.28428 33571 ft 462 kts 112°
2026-04-25 19:58 22.79956 -105.25369 33898 ft 462 kts 112°
2026-04-25 19:59 22.78929 -105.22505 34193 ft 462 kts 112°
2026-04-25 19:59 22.77808 -105.19386 34494 ft 462 kts 112°
2026-04-25 19:59 22.76698 -105.16300 34824 ft 460 kts 112°
2026-04-25 19:59 22.75677 -105.13455 35038 ft 461 kts 112°
2026-04-25 20:00 22.74558 -105.10351 35298 ft 460 kts 112°
2026-04-25 20:00 22.74182 -105.09310 35399 ft 460 kts 112°
2026-04-25 20:00 22.72456 -105.04532 35786 ft 460 kts 112°
2026-04-25 20:00 22.71337 -105.01438 36002 ft 460 kts 112°
2026-04-25 20:01 22.69162 -104.95408 36526 ft 459 kts 112°
2026-04-25 20:01 22.68115 -104.92515 36824 ft 457 kts 112°
2026-04-25 20:01 22.67027 -104.89507 37261 ft 450 kts 112°
2026-04-25 20:02 22.64844 -104.83495 37226 ft 463 kts 112°
2026-04-25 20:02 22.63686 -104.80302 37014 ft 474 kts 112°
2026-04-25 20:02 22.62516 -104.77076 37095 ft 478 kts 112°
2026-04-25 20:03 22.60188 -104.70669 37070 ft 484 kts 112°
2026-04-25 20:03 22.57877 -104.64313 37045 ft 484 kts 112°
2026-04-25 20:04 22.55485 -104.57728 37042 ft 484 kts 112°
2026-04-25 20:04 22.53231 -104.51541 37033 ft 483 kts 112°
2026-04-25 20:05 22.50904 -104.45161 37090 ft 481 kts 112°
2026-04-25 20:05 22.48544 -104.38696 37109 ft 482 kts 112°
2026-04-25 20:06 22.46255 -104.32441 37104 ft 481 kts 112°
2026-04-25 20:06 22.44001 -104.26296 37108 ft 482 kts 112°
2026-04-25 20:07 22.41675 -104.19955 37112 ft 480 kts 112°
2026-04-25 20:07 22.39314 -104.13552 37110 ft 480 kts 112°
2026-04-25 20:08 22.36964 -104.07182 37123 ft 480 kts 112°
2026-04-25 20:08 22.34628 -104.00845 37128 ft 480 kts 112°
2026-04-25 20:09 22.32264 -103.94436 37117 ft 480 kts 112°
2026-04-25 20:09 22.29870 -103.87964 37128 ft 481 kts 112°
2026-04-25 20:10 22.27480 -103.81510 37129 ft 480 kts 112°
2026-04-25 20:10 22.25158 -103.75249 37136 ft 480 kts 112°
2026-04-25 20:11 22.22784 -103.68845 37148 ft 481 kts 112°
2026-04-25 20:11 22.20442 -103.62545 37140 ft 480 kts 112°
2026-04-25 20:12 22.18430 -103.57141 37151 ft 480 kts 112°
2026-04-25 20:12 22.16479 -103.51901 37154 ft 480 kts 112°
2026-04-25 20:13 22.13690 -103.44430 37151 ft 481 kts 112°
2026-04-25 20:13 22.11325 -103.38095 37155 ft 482 kts 112°
2026-04-25 20:14 22.08918 -103.31664 37158 ft 482 kts 112°
2026-04-25 20:14 22.06533 -103.25292 37174 ft 482 kts 112°
2026-04-25 20:15 22.04109 -103.18842 37183 ft 483 kts 113°
2026-04-25 20:15 22.01650 -103.12302 37182 ft 482 kts 113°
2026-04-25 20:16 21.99217 -103.05836 37177 ft 483 kts 113°
2026-04-25 20:16 21.96794 -102.99404 37167 ft 478 kts 113°
2026-04-25 20:17 21.94339 -102.92899 37176 ft 480 kts 113°
2026-04-25 20:17 21.91911 -102.86477 37179 ft 480 kts 112°
2026-04-25 20:18 21.89477 -102.80042 37171 ft 481 kts 113°
2026-04-25 20:18 21.87016 -102.73561 37175 ft 481 kts 113°
2026-04-25 20:19 21.84668 -102.67378 37180 ft 481 kts 113°
2026-04-25 20:19 21.82217 -102.60937 37172 ft 481 kts 113°
2026-04-25 20:20 21.79769 -102.54502 37174 ft 482 kts 113°
2026-04-25 20:20 21.77312 -102.48052 37173 ft 482 kts 113°
2026-04-25 20:21 21.74830 -102.41549 37175 ft 483 kts 113°
2026-04-25 20:21 21.72412 -102.35221 37180 ft 483 kts 113°
2026-04-25 20:22 21.70358 -102.29890 37173 ft 482 kts 114°
2026-04-25 20:22 21.67348 -102.22703 37174 ft 482 kts 115°
2026-04-25 20:23 21.64722 -102.16428 37177 ft 482 kts 115°
2026-04-25 20:23 21.62057 -102.10024 37184 ft 482 kts 115°
2026-04-25 20:24 21.59481 -102.03837 37169 ft 482 kts 115°
2026-04-25 20:24 21.56861 -101.97548 37175 ft 482 kts 115°
2026-04-25 20:25 21.54237 -101.91262 37176 ft 482 kts 115°
2026-04-25 20:25 21.51607 -101.84965 37168 ft 482 kts 115°
2026-04-25 20:26 21.49050 -101.78853 37164 ft 482 kts 115°
2026-04-25 20:26 21.46423 -101.72597 37175 ft 481 kts 115°
2026-04-25 20:27 21.43795 -101.66330 37176 ft 480 kts 115°
2026-04-25 20:27 21.41215 -101.60200 37173 ft 480 kts 115°
2026-04-25 20:28 21.38513 -101.53786 37176 ft 480 kts 115°
2026-04-25 20:28 21.35881 -101.47548 37180 ft 479 kts 115°
2026-04-25 20:29 21.33297 -101.41421 37173 ft 479 kts 115°
2026-04-25 20:29 21.30641 -101.35194 37171 ft 478 kts 119°
2026-04-25 20:30 21.27375 -101.29382 37183 ft 478 kts 124°
2026-04-25 20:30 21.23966 -101.23713 37174 ft 476 kts 124°
2026-04-25 20:31 21.20494 -101.17857 37177 ft 476 kts 124°
2026-04-25 20:31 21.17104 -101.12116 37177 ft 475 kts 124°
2026-04-25 20:32 21.13706 -101.06372 37188 ft 476 kts 124°
2026-04-25 20:32 21.10319 -101.00648 37183 ft 476 kts 124°
2026-04-25 20:33 21.06933 -100.94938 37179 ft 475 kts 124°
2026-04-25 20:33 21.04135 -100.90223 37177 ft 474 kts 124°
2026-04-25 20:34 21.00112 -100.83449 37186 ft 475 kts 124°
2026-04-25 20:34 20.96718 -100.77743 37180 ft 475 kts 124°
2026-04-25 20:35 20.93341 -100.72075 37189 ft 474 kts 124°
2026-04-25 20:35 20.89914 -100.66323 37197 ft 474 kts 124°
2026-04-25 20:36 20.86491 -100.60580 37201 ft 474 kts 124°
2026-04-25 20:36 20.83118 -100.54935 37195 ft 473 kts 124°
2026-04-25 20:37 20.79735 -100.49291 36651 ft 465 kts 124°
2026-04-25 20:37 20.78066 -100.46506 36334 ft 455 kts 124°
2026-04-25 20:37 20.76403 -100.43734 35648 ft 455 kts 124°
2026-04-25 20:38 20.74797 -100.41059 35118 ft 451 kts 124°
2026-04-25 20:38 20.73155 -100.38327 34519 ft 448 kts 123°
2026-04-25 20:38 20.71527 -100.35620 33952 ft 445 kts 123°
2026-04-25 20:38 20.69991 -100.33064 33416 ft 442 kts 123°
2026-04-25 20:39 20.68393 -100.30405 32824 ft 440 kts 123°
2026-04-25 20:39 20.66796 -100.27752 32295 ft 437 kts 123°
2026-04-25 20:39 20.65232 -100.25153 31704 ft 441 kts 123°
2026-04-25 20:39 20.64193 -100.23426 31357 ft 443 kts 123°
2026-04-25 20:40 20.62064 -100.19888 30582 ft 450 kts 124°
2026-04-25 20:40 20.60500 -100.17209 30070 ft 451 kts 121°
2026-04-25 20:40 20.59081 -100.14469 29445 ft 454 kts 118°
2026-04-25 20:40 20.57677 -100.11584 28914 ft 451 kts 118°
2026-04-25 20:41 20.56303 -100.08797 28315 ft 450 kts 118°
2026-04-25 20:41 20.54878 -100.05974 27762 ft 445 kts 119°
2026-04-25 20:41 20.53445 -100.03171 27180 ft 440 kts 119°
2026-04-25 20:41 20.52069 -100.00489 26633 ft 434 kts 118°
2026-04-25 20:42 20.50681 -99.97784 26091 ft 428 kts 118°
2026-04-25 20:42 20.49303 -99.95103 25512 ft 423 kts 118°
2026-04-25 20:42 20.47982 -99.92534 25019 ft 416 kts 118°
2026-04-25 20:42 20.46641 -99.89927 24461 ft 411 kts 118°
2026-04-25 20:43 20.45364 -99.87448 23953 ft 406 kts 118°
2026-04-25 20:43 20.44097 -99.84978 23447 ft 402 kts 118°
2026-04-25 20:43 20.42794 -99.82438 22931 ft 398 kts 118°
2026-04-25 20:43 20.41556 -99.80027 22440 ft 394 kts 118°
2026-04-25 20:44 20.40319 -99.77620 21953 ft 392 kts 118°
2026-04-25 20:44 20.39032 -99.75118 21436 ft 390 kts 118°
2026-04-25 20:44 20.37784 -99.72694 20946 ft 387 kts 118°
2026-04-25 20:44 20.36567 -99.70331 20453 ft 385 kts 118°
2026-04-25 20:45 20.35326 -99.67920 19967 ft 381 kts 118°
2026-04-25 20:45 20.34095 -99.65524 19476 ft 378 kts 118°
2026-04-25 20:45 20.32918 -99.63245 19006 ft 375 kts 118°
2026-04-25 20:45 20.31571 -99.60962 18528 ft 372 kts 124°
2026-04-25 20:46 20.30137 -99.58866 18053 ft 370 kts 126°
2026-04-25 20:46 20.28715 -99.56796 17603 ft 366 kts 125°
2026-04-25 20:46 20.27297 -99.54678 17150 ft 363 kts 124°
2026-04-25 20:46 20.25901 -99.52558 16732 ft 357 kts 124°
2026-04-25 20:47 20.24588 -99.50543 16418 ft 347 kts 124°
2026-04-25 20:47 20.23284 -99.48535 16231 ft 335 kts 124°
2026-04-25 20:47 20.22022 -99.46598 16191 ft 318 kts 124°
2026-04-25 20:47 20.20678 -99.44928 15842 ft 314 kts 140°
2026-04-25 20:48 20.19019 -99.43587 15698 ft 302 kts 146°
2026-04-25 20:48 20.17347 -99.42409 15694 ft 295 kts 147°
2026-04-25 20:48 20.15711 -99.41277 15726 ft 300 kts 147°
2026-04-25 20:48 20.14004 -99.40068 15704 ft 306 kts 146°
2026-04-25 20:49 20.12372 -99.38895 15668 ft 306 kts 146°
2026-04-25 20:49 20.10635 -99.37640 15639 ft 306 kts 146°
2026-04-25 20:49 20.08917 -99.36398 15585 ft 306 kts 146°
2026-04-25 20:49 20.07261 -99.35208 15555 ft 305 kts 146°
2026-04-25 20:50 20.05553 -99.33972 15512 ft 305 kts 146°
2026-04-25 20:50 20.03848 -99.32740 15441 ft 306 kts 146°
2026-04-25 20:50 20.02238 -99.31576 15401 ft 305 kts 146°
2026-04-25 20:50 20.00554 -99.30361 15385 ft 302 kts 146°
2026-04-25 20:51 19.98931 -99.29189 15312 ft 284 kts 146°
2026-04-25 20:51 19.97397 -99.28082 15235 ft 263 kts 146°
2026-04-25 20:51 19.96013 -99.27086 15218 ft 243 kts 146°
2026-04-25 20:51 19.94702 -99.26139 15191 ft 228 kts 146°
2026-04-25 20:52 19.93458 -99.25239 15223 ft 228 kts 146°
2026-04-25 20:52 19.92603 -99.24621 15247 ft 234 kts 146°
2026-04-25 20:52 19.90847 -99.23362 14995 ft 240 kts 148°
2026-04-25 20:52 19.89374 -99.22696 14738 ft 236 kts 168°
2026-04-25 20:53 19.87861 -99.22427 14516 ft 234 kts 174°
2026-04-25 20:53 19.86295 -99.22271 14194 ft 234 kts 176°
2026-04-25 20:53 19.84779 -99.22150 13861 ft 232 kts 176°
2026-04-25 20:53 19.83225 -99.22019 13581 ft 228 kts 176°
2026-04-25 20:54 19.81714 -99.21877 13277 ft 225 kts 175°
2026-04-25 20:54 19.80250 -99.21734 13014 ft 222 kts 175°
2026-04-25 20:54 19.78802 -99.21577 12707 ft 224 kts 175°
2026-04-25 20:54 19.77300 -99.21411 12447 ft 223 kts 175°
2026-04-25 20:55 19.75828 -99.21249 12128 ft 222 kts 175°
2026-04-25 20:55 19.74344 -99.21086 11904 ft 218 kts 175°
2026-04-25 20:55 19.72919 -99.20935 11635 ft 220 kts 175°
2026-04-25 20:55 19.71465 -99.20780 11310 ft 223 kts 175°
2026-04-25 20:56 19.70028 -99.20632 11061 ft 219 kts 176°
2026-04-25 20:56 19.68873 -99.20511 10864 ft 214 kts 172°
2026-04-25 20:56 19.67654 -99.20165 10599 ft 210 kts 157°
2026-04-25 20:56 19.66469 -99.19404 10304 ft 202 kts 143°
2026-04-25 20:57 19.65542 -99.18472 10066 ft 191 kts 119°
2026-04-25 20:57 19.65338 -99.17252 9873 ft 176 kts 78°
2026-04-25 20:57 19.65651 -99.16253 9738 ft 166 kts 65°
2026-04-25 20:57 19.66088 -99.15119 9581 ft 167 kts 72°
2026-04-25 20:58 19.66295 -99.13941 9521 ft 171 kts 87°
2026-04-25 20:58 19.66256 -99.12666 9359 ft 176 kts 93°
2026-04-25 20:58 19.66461 -99.11480 9036 ft 174 kts 59°
2026-04-25 20:58 19.67228 -99.10634 9001 ft 155 kts 32°
2026-04-25 20:59 19.67822 -99.10282 9031 ft 153 kts 25°
2026-04-25 20:59 19.68705 -99.09756 8938 ft 157 kts 36°
2026-04-25 20:59 19.69408 -99.08917 8870 ft 160 kts 54°
2026-04-25 20:59 19.70072 -99.08031 8780 ft 158 kts 47°
2026-04-25 21:00 19.70794 -99.07199 8567 ft 157 kts 48°
2026-04-25 21:00 19.71247 -99.06622 8312 ft 157 kts 50°
2026-04-25 21:00 19.72785 -99.04722 7525 ft 148 kts 48°
2026-04-25 21:01 19.73402 -99.03977 7399 ft 147 kts 49°
2026-04-25 21:01 19.73959 -99.03297 7373 ft 121 kts 49°
2026-04-25 21:01 19.74400 -99.02758 7376 ft 86 kts 49°
2026-04-25 21:01 19.74708 -99.02385 7374 ft 60 kts 48°
2026-04-25 21:02 19.74942 -99.02109 7377 ft 49 kts 49°
2026-04-25 21:02 19.75129 -99.01870 7376 ft 41 kts 50°
2026-04-25 21:02 19.75301 -99.01666 7379 ft 38 kts 49°
2026-04-25 21:02 19.75405 -99.01481 7373 ft 17 kts 107°
2026-04-25 21:03 19.75336 -99.01419 7374 ft 12 kts 137°
2026-04-25 21:03 19.75279 -99.01364 7379 ft 11 kts 137°
2026-04-25 21:03 19.75259 -99.01320 7375 ft 5 kts 88°
2026-04-25 21:03 19.75268 -99.01297 7375 ft 4 kts 58°
2026-04-25 21:04 19.75280 -99.01284 7380 ft 3 kts 47°
2026-04-25 21:04 19.75298 -99.01264 7377 ft 5 kts 47°
2026-04-25 21:04 19.75327 -99.01227 7377 ft 11 kts 49°
2026-04-25 21:04 19.75388 -99.01154 7375 ft 17 kts 49°
2026-04-25 21:05 19.75462 -99.01063 7375 ft 17 kts 49°
2026-04-25 21:05 19.75537 -99.00971 7376 ft 17 kts 49°
2026-04-25 21:05 19.75605 -99.00883 7376 ft 15 kts 67°
2026-04-25 21:05 19.75595 -99.00822 7376 ft 6 kts 146°
2026-04-25 21:06 19.75585 -99.00800 7376 ft 2 kts 102°
2026-04-25 21:06 19.75582 -99.00776 7376 ft 7 kts 108°
2026-04-25 21:06 19.75537 -99.00730 7376 ft 11 kts 140°
2026-04-25 21:06 19.75510 -99.00705 7376 ft 5 kts 138°
2026-04-25 21:07 19.75507 -99.00702 7376 ft 0 kts 138°